contact:dominique.lefevre@mio.osupytheas.fr, maurice.libes@osupytheas.fr, didier.mallarino@osupytheas.fr
Project:EMSO http://www.emso-fr.org/EMSO-France
Depth: 2436.0 m
Title:EMSO Ligure Ouest : Data MII capteur MICROCAT
DateTime_Computer,Latitude,Longitude,Temperature,Conductivity,Pressure,DateTime_Instrument
DateTime_Computer,Latitude,Longitude,degC,S m-1,dbar,DateTime_Instrument
2019-07-09T00:01:41Z,42.805,6.029,13.2956,4.59957,2469.993,2019-7-09T02:01:59Z
2019-07-09T00:04:44Z,42.805,6.029,13.2953,4.59956,2469.947,2019-7-09T02:05:02Z
2019-07-09T00:07:47Z,42.805,6.029,13.2953,4.59954,2469.993,2019-7-09T02:08:05Z
2019-07-09T00:10:50Z,42.805,6.029,13.2953,4.59956,2469.97,2019-7-09T02:11:07Z
2019-07-09T00:13:53Z,42.805,6.029,13.2951,4.59954,2469.97,2019-7-09T02:14:10Z
2019-07-09T00:16:55Z,42.805,6.029,13.2956,4.59958,2469.947,2019-7-09T02:17:13Z
2019-07-09T00:19:58Z,42.805,6.029,13.2957,4.59956,2469.96,2019-7-09T02:20:16Z
2019-07-09T00:23:01Z,42.805,6.029,13.2953,4.59955,2469.96,2019-7-09T02:23:19Z
2019-07-09T00:26:04Z,42.805,6.029,13.2958,4.59956,2469.984,2019-7-09T02:26:22Z
2019-07-09T00:29:07Z,42.805,6.029,13.2954,4.59954,2469.947,2019-7-09T02:29:25Z
2019-07-09T00:32:10Z,42.805,6.029,13.2951,4.59955,2469.984,2019-7-09T02:32:28Z
2019-07-09T00:35:13Z,42.805,6.029,13.2960,4.59956,2469.984,2019-7-09T02:35:31Z
2019-07-09T00:38:16Z,42.805,6.029,13.2954,4.59954,2469.97,2019-7-09T02:38:34Z
2019-07-09T00:41:19Z,42.805,6.029,13.2955,4.59954,2469.923,2019-7-09T02:41:37Z
2019-07-09T00:44:22Z,42.805,6.029,13.2956,4.59956,2469.97,2019-7-09T02:44:40Z
2019-07-09T00:47:25Z,42.805,6.029,13.2957,4.59958,2469.947,2019-7-09T02:47:43Z
2019-07-09T00:50:28Z,42.805,6.029,13.2951,4.59958,2469.97,2019-7-09T02:50:46Z
2019-07-09T00:53:31Z,42.805,6.029,13.2956,4.59965,2469.923,2019-7-09T02:53:49Z
2019-07-09T00:56:34Z,42.805,6.029,13.2952,4.59956,2469.923,2019-7-09T02:56:52Z
2019-07-09T00:59:37Z,42.805,6.029,13.2957,4.59956,2469.97,2019-7-09T02:59:55Z
2019-07-09T01:02:40Z,42.805,6.029,13.2957,4.59954,2469.947,2019-7-09T03:02:58Z
2019-07-09T01:05:43Z,42.805,6.029,13.2957,4.59970,2469.937,2019-7-09T03:06:00Z
2019-07-09T01:08:46Z,42.805,6.029,13.2957,4.59955,2469.947,2019-7-09T03:09:03Z
2019-07-09T01:11:48Z,42.805,6.029,13.2953,4.59956,2469.96,2019-7-09T03:12:06Z
2019-07-09T01:14:51Z,42.805,6.029,13.2953,4.59956,2469.947,2019-7-09T03:15:09Z
2019-07-09T01:17:54Z,42.805,6.029,13.2955,4.59964,2469.96,2019-7-09T03:18:12Z
2019-07-09T01:20:57Z,42.805,6.029,13.2959,4.59956,2469.984,2019-7-09T03:21:15Z
2019-07-09T01:24:00Z,42.805,6.029,13.2953,4.59954,2469.984,2019-7-09T03:24:18Z
2019-07-09T01:27:03Z,42.805,6.029,13.2954,4.59954,2469.947,2019-7-09T03:27:21Z
2019-07-09T01:30:06Z,42.805,6.029,13.2952,4.59979,2469.947,2019-7-09T03:30:24Z
2019-07-09T01:33:09Z,42.805,6.029,13.2953,4.59957,2469.97,2019-7-09T03:33:27Z
2019-07-09T01:36:12Z,42.805,6.029,13.2960,4.59956,2469.923,2019-7-09T03:36:30Z
2019-07-09T01:39:15Z,42.805,6.029,13.2952,4.59954,2469.97,2019-7-09T03:39:33Z
2019-07-09T01:42:18Z,42.805,6.029,13.2958,4.59956,2469.984,2019-7-09T03:42:36Z
2019-07-09T01:45:21Z,42.805,6.029,13.2951,4.59954,2469.947,2019-7-09T03:45:39Z
2019-07-09T01:48:24Z,42.805,6.029,13.2953,4.59953,2469.923,2019-7-09T03:48:42Z
2019-07-09T01:51:27Z,42.805,6.029,13.2953,4.59956,2469.947,2019-7-09T03:51:45Z
2019-07-09T01:54:30Z,42.805,6.029,13.2953,4.59955,2469.947,2019-7-09T03:54:48Z
2019-07-09T01:57:33Z,42.805,6.029,13.2957,4.59961,2469.923,2019-7-09T03:57:51Z
2019-07-09T02:00:36Z,42.805,6.029,13.2958,4.59957,2469.96,2019-7-09T04:00:53Z
2019-07-09T02:03:39Z,42.805,6.029,13.2956,4.59956,2469.947,2019-7-09T04:03:56Z
2019-07-09T02:06:41Z,42.805,6.029,13.2955,4.59955,2469.923,2019-7-09T04:06:59Z
2019-07-09T02:09:44Z,42.805,6.029,13.2953,4.59954,2469.947,2019-7-09T04:10:02Z
2019-07-09T02:12:47Z,42.805,6.029,13.2955,4.59954,2469.947,2019-7-09T04:13:05Z
2019-07-09T02:15:50Z,42.805,6.029,13.2954,4.59953,2469.984,2019-7-09T04:16:08Z
2019-07-09T02:18:53Z,42.805,6.029,13.2956,4.59954,2469.9,2019-7-09T04:19:11Z
2019-07-09T02:21:56Z,42.805,6.029,13.2957,4.59957,2469.923,2019-7-09T04:22:14Z
2019-07-09T02:24:59Z,42.805,6.029,13.2953,4.59960,2469.947,2019-7-09T04:25:17Z
2019-07-09T02:28:02Z,42.805,6.029,13.2954,4.59954,2469.947,2019-7-09T04:28:20Z
2019-07-09T02:31:05Z,42.805,6.029,13.2952,4.59955,2469.933,2019-7-09T04:31:23Z
2019-07-09T02:34:08Z,42.805,6.029,13.2954,4.59956,2469.96,2019-7-09T04:34:26Z
2019-07-09T02:37:11Z,42.805,6.029,13.2953,4.59957,2469.984,2019-7-09T04:37:29Z
2019-07-09T02:40:14Z,42.805,6.029,13.2952,4.59953,2469.97,2019-7-09T04:40:32Z
2019-07-09T02:43:17Z,42.805,6.029,13.2952,4.59956,2469.937,2019-7-09T04:43:35Z
2019-07-09T02:46:20Z,42.805,6.029,13.2952,4.59956,2469.96,2019-7-09T04:46:38Z
2019-07-09T02:49:23Z,42.805,6.029,13.2952,4.59956,2469.947,2019-7-09T04:49:41Z
2019-07-09T02:52:26Z,42.805,6.029,13.2953,4.59954,2469.923,2019-7-09T04:52:43Z
2019-07-09T02:55:29Z,42.805,6.029,13.2957,4.59956,2469.923,2019-7-09T04:55:46Z
2019-07-09T02:58:31Z,42.805,6.029,13.2956,4.59957,2469.923,2019-7-09T04:58:49Z
2019-07-09T03:01:34Z,42.805,6.029,13.2953,4.59956,2469.914,2019-7-09T05:01:52Z
2019-07-09T03:04:37Z,42.805,6.029,13.2957,4.59955,2469.96,2019-7-09T05:04:55Z
2019-07-09T03:07:40Z,42.805,6.029,13.2958,4.59952,2469.937,2019-7-09T05:07:58Z
2019-07-09T03:10:43Z,42.805,6.029,13.2954,4.59957,2469.923,2019-7-09T05:11:01Z
2019-07-09T03:13:46Z,42.805,6.029,13.2952,4.59953,2469.876,2019-7-09T05:14:04Z
2019-07-09T03:16:49Z,42.805,6.029,13.2952,4.59952,2469.923,2019-7-09T05:17:07Z
2019-07-09T03:19:52Z,42.805,6.029,13.2956,4.59953,2469.923,2019-7-09T05:20:10Z
2019-07-09T03:22:55Z,42.805,6.029,13.2955,4.59953,2469.9,2019-7-09T05:23:13Z
2019-07-09T03:25:58Z,42.805,6.029,13.2954,4.59956,2469.9,2019-7-09T05:26:16Z
2019-07-09T03:29:01Z,42.805,6.029,13.2957,4.59958,2469.914,2019-7-09T05:29:19Z
2019-07-09T03:32:04Z,42.805,6.029,13.2952,4.59954,2469.914,2019-7-09T05:32:22Z
2019-07-09T03:35:07Z,42.805,6.029,13.2952,4.59958,2469.9,2019-7-09T05:35:25Z
2019-07-09T03:38:10Z,42.805,6.029,13.2952,4.59954,2469.9,2019-7-09T05:38:28Z
2019-07-09T03:41:13Z,42.805,6.029,13.2954,4.59953,2469.876,2019-7-09T05:41:31Z
2019-07-09T03:44:16Z,42.805,6.029,13.2955,4.59958,2469.9,2019-7-09T05:44:34Z
2019-07-09T03:47:19Z,42.805,6.029,13.2955,4.59956,2469.9,2019-7-09T05:47:36Z
2019-07-09T03:50:22Z,42.805,6.029,13.2952,4.59955,2469.89,2019-7-09T05:50:39Z
2019-07-09T03:53:24Z,42.805,6.029,13.2954,4.59954,2469.89,2019-7-09T05:53:42Z
2019-07-09T03:56:27Z,42.805,6.029,13.2957,4.59958,2469.876,2019-7-09T05:56:45Z
2019-07-09T03:59:30Z,42.805,6.029,13.2955,4.59956,2469.9,2019-7-09T05:59:48Z
2019-07-09T04:02:33Z,42.805,6.029,13.2962,4.59959,2469.9,2019-7-09T06:02:51Z
2019-07-09T04:05:36Z,42.805,6.029,13.2952,4.59957,2469.9,2019-7-09T06:05:54Z
2019-07-09T04:08:39Z,42.805,6.029,13.2957,4.59961,2469.89,2019-7-09T06:08:57Z
2019-07-09T04:11:42Z,42.805,6.029,13.2955,4.59961,2469.9,2019-7-09T06:12:00Z
2019-07-09T04:14:45Z,42.805,6.029,13.2955,4.59961,2469.9,2019-7-09T06:15:03Z
2019-07-09T04:17:48Z,42.805,6.029,13.2961,4.59961,2469.89,2019-7-09T06:18:06Z
2019-07-09T04:20:51Z,42.805,6.029,13.2955,4.59953,2469.867,2019-7-09T06:21:09Z
2019-07-09T04:23:54Z,42.805,6.029,13.2958,4.59954,2469.914,2019-7-09T06:24:12Z
2019-07-09T04:26:57Z,42.805,6.029,13.2958,4.59955,2469.853,2019-7-09T06:27:15Z
2019-07-09T04:30:00Z,42.805,6.029,13.2957,4.59957,2469.83,2019-7-09T06:30:18Z
2019-07-09T04:33:03Z,42.805,6.029,13.2957,4.59954,2469.853,2019-7-09T06:33:21Z
2019-07-09T04:36:06Z,42.805,6.029,13.2961,4.59955,2469.83,2019-7-09T06:36:24Z
2019-07-09T04:39:09Z,42.805,6.029,13.2959,4.59960,2469.867,2019-7-09T06:39:26Z
2019-07-09T04:42:12Z,42.805,6.029,13.2961,4.59959,2469.876,2019-7-09T06:42:29Z
2019-07-09T04:45:15Z,42.805,6.029,13.2953,4.59954,2469.876,2019-7-09T06:45:32Z
2019-07-09T04:48:17Z,42.805,6.029,13.2957,4.59956,2469.853,2019-7-09T06:48:35Z
2019-07-09T04:51:20Z,42.805,6.029,13.2968,4.59956,2469.853,2019-7-09T06:51:38Z
2019-07-09T04:54:23Z,42.805,6.029,13.2957,4.59956,2469.853,2019-7-09T06:54:41Z
2019-07-09T04:57:26Z,42.805,6.029,13.2956,4.59956,2469.876,2019-7-09T06:57:44Z
2019-07-09T05:00:29Z,42.805,6.029,13.2957,4.59961,2469.853,2019-7-09T07:00:47Z
2019-07-09T05:03:32Z,42.805,6.029,13.2958,4.59958,2469.83,2019-7-09T07:03:50Z
2019-07-09T05:06:35Z,42.805,6.029,13.2960,4.59956,2469.876,2019-7-09T07:06:53Z
2019-07-09T05:09:38Z,42.805,6.029,13.2959,4.59955,2469.89,2019-7-09T07:09:56Z
2019-07-09T05:12:41Z,42.805,6.029,13.2957,4.59956,2469.844,2019-7-09T07:12:59Z
2019-07-09T05:15:44Z,42.805,6.029,13.2955,4.59969,2469.83,2019-7-09T07:16:02Z
2019-07-09T05:18:47Z,42.805,6.029,13.2958,4.59962,2469.806,2019-7-09T07:19:05Z
2019-07-09T05:21:50Z,42.805,6.029,13.2961,4.59958,2469.821,2019-7-09T07:22:08Z
2019-07-09T05:24:53Z,42.805,6.029,13.2960,4.59958,2469.83,2019-7-09T07:25:11Z
2019-07-09T05:27:56Z,42.805,6.029,13.2959,4.59958,2469.806,2019-7-09T07:28:14Z
2019-07-09T05:30:59Z,42.805,6.029,13.2959,4.59964,2469.806,2019-7-09T07:31:17Z
2019-07-09T05:34:02Z,42.805,6.029,13.2960,4.59955,2469.844,2019-7-09T07:34:19Z
2019-07-09T05:37:05Z,42.805,6.029,13.2958,4.59958,2469.783,2019-7-09T07:37:22Z
2019-07-09T05:40:07Z,42.805,6.029,13.2953,4.59963,2469.83,2019-7-09T07:40:25Z
2019-07-09T05:43:10Z,42.805,6.029,13.2960,4.59958,2469.844,2019-7-09T07:43:28Z
2019-07-09T05:46:13Z,42.805,6.029,13.2957,4.59954,2469.821,2019-7-09T07:46:31Z
2019-07-09T05:49:16Z,42.805,6.029,13.2953,4.59956,2469.844,2019-7-09T07:49:34Z
2019-07-09T05:52:19Z,42.805,6.029,13.2953,4.59952,2469.844,2019-7-09T07:52:37Z
2019-07-09T05:55:22Z,42.805,6.029,13.2953,4.59953,2469.806,2019-7-09T07:55:40Z
2019-07-09T05:58:25Z,42.805,6.029,13.2955,4.59954,2469.806,2019-7-09T07:58:43Z
2019-07-09T06:01:28Z,42.805,6.029,13.2956,4.59952,2469.844,2019-7-09T08:01:46Z
2019-07-09T06:04:31Z,42.805,6.029,13.2955,4.59954,2469.806,2019-7-09T08:04:49Z
2019-07-09T06:07:34Z,42.805,6.029,13.2957,4.59956,2469.821,2019-7-09T08:07:52Z
2019-07-09T06:10:37Z,42.805,6.029,13.2955,4.59954,2469.853,2019-7-09T08:10:55Z
2019-07-09T06:13:40Z,42.805,6.029,13.2957,4.59953,2469.821,2019-7-09T08:13:58Z
2019-07-09T06:16:43Z,42.805,6.029,13.2957,4.59954,2469.806,2019-7-09T08:17:01Z
2019-07-09T06:19:46Z,42.805,6.029,13.2957,4.59955,2469.844,2019-7-09T08:20:04Z
2019-07-09T06:22:49Z,42.805,6.029,13.2957,4.59953,2469.783,2019-7-09T08:23:07Z
2019-07-09T06:25:52Z,42.805,6.029,13.2958,4.59952,2469.797,2019-7-09T08:26:10Z
2019-07-09T06:28:55Z,42.805,6.029,13.2958,4.59954,2469.806,2019-7-09T08:29:12Z
2019-07-09T06:31:58Z,42.805,6.029,13.2958,4.59951,2469.83,2019-7-09T08:32:15Z
2019-07-09T06:35:00Z,42.805,6.029,13.2957,4.59952,2469.83,2019-7-09T08:35:18Z
2019-07-09T06:38:03Z,42.805,6.029,13.2958,4.59953,2469.806,2019-7-09T08:38:21Z
2019-07-09T06:41:06Z,42.805,6.029,13.2958,4.59956,2469.806,2019-7-09T08:41:24Z
2019-07-09T06:44:09Z,42.805,6.029,13.2957,4.59955,2469.76,2019-7-09T08:44:27Z
2019-07-09T06:47:12Z,42.805,6.029,13.2958,4.59956,2469.783,2019-7-09T08:47:30Z
2019-07-09T06:50:15Z,42.805,6.029,13.2955,4.59954,2469.773,2019-7-09T08:50:33Z
2019-07-09T06:53:18Z,42.805,6.029,13.2950,4.59956,2469.76,2019-7-09T08:53:36Z
2019-07-09T06:56:21Z,42.805,6.029,13.2954,4.59955,2469.76,2019-7-09T08:56:39Z
2019-07-09T06:59:24Z,42.805,6.029,13.2955,4.59958,2469.806,2019-7-09T08:59:42Z
2019-07-09T07:02:27Z,42.805,6.029,13.2957,4.59954,2469.806,2019-7-09T09:02:45Z
2019-07-09T07:05:30Z,42.805,6.029,13.2957,4.59956,2469.783,2019-7-09T09:05:48Z
2019-07-09T07:08:33Z,42.805,6.029,13.2957,4.59962,2469.806,2019-7-09T09:08:51Z
2019-07-09T07:11:36Z,42.805,6.029,13.2960,4.59951,2469.773,2019-7-09T09:11:54Z
2019-07-09T07:14:39Z,42.805,6.029,13.2951,4.59953,2469.737,2019-7-09T09:14:57Z
2019-07-09T07:17:42Z,42.805,6.029,13.2953,4.59953,2469.797,2019-7-09T09:18:00Z
2019-07-09T07:20:45Z,42.805,6.029,13.2953,4.59951,2469.806,2019-7-09T09:21:03Z
2019-07-09T07:23:48Z,42.805,6.029,13.2957,4.59953,2469.821,2019-7-09T09:24:05Z
2019-07-09T07:26:51Z,42.805,6.029,13.2955,4.59953,2469.783,2019-7-09T09:27:08Z
2019-07-09T07:29:53Z,42.805,6.029,13.2958,4.59954,2469.821,2019-7-09T09:30:11Z
2019-07-09T07:32:56Z,42.805,6.029,13.2957,4.59953,2469.737,2019-7-09T09:33:14Z
2019-07-09T07:35:59Z,42.805,6.029,13.2957,4.59952,2469.806,2019-7-09T09:36:17Z
2019-07-09T07:39:02Z,42.805,6.029,13.2953,4.59954,2469.806,2019-7-09T09:39:20Z
2019-07-09T07:42:05Z,42.805,6.029,13.2955,4.59954,2469.783,2019-7-09T09:42:23Z
2019-07-09T07:45:08Z,42.805,6.029,13.2956,4.59952,2469.783,2019-7-09T09:45:26Z
2019-07-09T07:48:11Z,42.805,6.029,13.2950,4.59952,2469.806,2019-7-09T09:48:29Z
2019-07-09T07:51:14Z,42.805,6.029,13.2956,4.59954,2469.806,2019-7-09T09:51:32Z
2019-07-09T07:54:17Z,42.805,6.029,13.2956,4.59957,2469.783,2019-7-09T09:54:35Z
2019-07-09T07:57:20Z,42.805,6.029,13.2953,4.59952,2469.783,2019-7-09T09:57:38Z
2019-07-09T08:00:23Z,42.805,6.029,13.2956,4.59954,2469.797,2019-7-09T10:00:41Z
2019-07-09T08:03:26Z,42.805,6.029,13.2957,4.59954,2469.783,2019-7-09T10:03:44Z
2019-07-09T08:06:29Z,42.805,6.029,13.2954,4.59957,2469.797,2019-7-09T10:06:47Z
2019-07-09T08:09:32Z,42.805,6.029,13.2957,4.59953,2469.783,2019-7-09T10:09:50Z
2019-07-09T08:12:35Z,42.805,6.029,13.2953,4.59952,2469.821,2019-7-09T10:12:53Z
2019-07-09T08:15:38Z,42.805,6.029,13.2956,4.59953,2469.797,2019-7-09T10:15:56Z
2019-07-09T08:18:41Z,42.805,6.029,13.2952,4.59951,2469.806,2019-7-09T10:18:58Z
2019-07-09T08:21:44Z,42.805,6.029,13.2955,4.59952,2469.821,2019-7-09T10:22:01Z
2019-07-09T08:24:46Z,42.805,6.029,13.2958,4.59952,2469.806,2019-7-09T10:25:04Z
2019-07-09T08:27:49Z,42.805,6.029,13.2953,4.59952,2469.797,2019-7-09T10:28:07Z
2019-07-09T08:30:52Z,42.805,6.029,13.2952,4.59954,2469.806,2019-7-09T10:31:10Z
2019-07-09T08:33:55Z,42.805,6.029,13.2950,4.59951,2469.797,2019-7-09T10:34:13Z
2019-07-09T08:36:58Z,42.805,6.029,13.2953,4.59951,2469.806,2019-7-09T10:37:16Z
2019-07-09T08:40:01Z,42.805,6.029,13.2953,4.59952,2469.797,2019-7-09T10:40:19Z
2019-07-09T08:43:04Z,42.805,6.029,13.2954,4.59951,2469.821,2019-7-09T10:43:22Z
2019-07-09T08:46:07Z,42.805,6.029,13.2955,4.59952,2469.806,2019-7-09T10:46:25Z
2019-07-09T08:49:10Z,42.805,6.029,13.2955,4.59952,2469.806,2019-7-09T10:49:28Z
2019-07-09T08:52:13Z,42.805,6.029,13.2957,4.59952,2469.806,2019-7-09T10:52:31Z
2019-07-09T08:55:16Z,42.805,6.029,13.2956,4.59953,2469.797,2019-7-09T10:55:34Z
2019-07-09T08:58:19Z,42.805,6.029,13.2953,4.59953,2469.797,2019-7-09T10:58:37Z
2019-07-09T09:01:22Z,42.805,6.029,13.2954,4.59953,2469.806,2019-7-09T11:01:40Z
2019-07-09T09:04:25Z,42.805,6.029,13.2952,4.59953,2469.797,2019-7-09T11:04:43Z
2019-07-09T09:07:28Z,42.805,6.029,13.2955,4.59953,2469.816,2019-7-09T11:07:46Z
2019-07-09T09:10:31Z,42.805,6.029,13.2952,4.59954,2469.806,2019-7-09T11:10:49Z
2019-07-09T09:13:34Z,42.805,6.029,13.2953,4.59956,2469.806,2019-7-09T11:13:52Z
2019-07-09T09:16:37Z,42.805,6.029,13.2956,4.59954,2469.806,2019-7-09T11:16:54Z
2019-07-09T09:19:40Z,42.805,6.029,13.2954,4.59954,2469.806,2019-7-09T11:19:57Z
2019-07-09T09:22:43Z,42.805,6.029,13.2957,4.59954,2469.783,2019-7-09T11:23:00Z
2019-07-09T09:25:45Z,42.805,6.029,13.2955,4.59953,2469.821,2019-7-09T11:26:03Z
2019-07-09T09:28:48Z,42.805,6.029,13.2956,4.59956,2469.806,2019-7-09T11:29:06Z
2019-07-09T09:31:51Z,42.805,6.029,13.2954,4.59956,2469.83,2019-7-09T11:32:09Z
2019-07-09T09:34:54Z,42.805,6.029,13.2953,4.59956,2469.806,2019-7-09T11:35:12Z
2019-07-09T09:37:57Z,42.805,6.029,13.2956,4.59955,2469.821,2019-7-09T11:38:15Z
2019-07-09T09:41:00Z,42.805,6.029,13.2957,4.59955,2469.844,2019-7-09T11:41:18Z
2019-07-09T09:44:03Z,42.805,6.029,13.2957,4.59954,2469.806,2019-7-09T11:44:21Z
2019-07-09T09:47:06Z,42.805,6.029,13.2957,4.59954,2469.83,2019-7-09T11:47:24Z
2019-07-09T09:50:09Z,42.805,6.029,13.2953,4.59954,2469.83,2019-7-09T11:50:27Z
2019-07-09T09:53:12Z,42.805,6.029,13.2956,4.59961,2469.83,2019-7-09T11:53:30Z
2019-07-09T09:56:15Z,42.805,6.029,13.2952,4.59958,2469.853,2019-7-09T11:56:33Z
2019-07-09T09:59:18Z,42.805,6.029,13.2953,4.59956,2469.867,2019-7-09T11:59:36Z
2019-07-09T10:02:21Z,42.805,6.029,13.2954,4.59955,2469.83,2019-7-09T12:02:39Z
2019-07-09T10:05:24Z,42.805,6.029,13.2952,4.59961,2469.83,2019-7-09T12:05:42Z
2019-07-09T10:08:27Z,42.805,6.029,13.2953,4.59954,2469.867,2019-7-09T12:08:45Z
2019-07-09T10:11:30Z,42.805,6.029,13.2958,4.59954,2469.83,2019-7-09T12:11:48Z
2019-07-09T10:14:33Z,42.805,6.029,13.2955,4.59956,2469.83,2019-7-09T12:14:51Z
2019-07-09T10:17:36Z,42.805,6.029,13.2957,4.59956,2469.867,2019-7-09T12:17:53Z
2019-07-09T10:20:39Z,42.805,6.029,13.2953,4.59954,2469.853,2019-7-09T12:20:56Z
2019-07-09T10:23:41Z,42.805,6.029,13.2955,4.59955,2469.83,2019-7-09T12:23:59Z
2019-07-09T10:26:44Z,42.805,6.029,13.2957,4.59956,2469.844,2019-7-09T12:27:02Z
2019-07-09T10:29:47Z,42.805,6.029,13.2954,4.59955,2469.867,2019-7-09T12:30:05Z
2019-07-09T10:32:50Z,42.805,6.029,13.2951,4.59956,2469.853,2019-7-09T12:33:08Z
2019-07-09T10:35:53Z,42.805,6.029,13.2957,4.59956,2469.853,2019-7-09T12:36:11Z
2019-07-09T10:38:56Z,42.805,6.029,13.2953,4.59958,2469.89,2019-7-09T12:39:14Z
2019-07-09T10:41:59Z,42.805,6.029,13.2960,4.59960,2469.867,2019-7-09T12:42:17Z
2019-07-09T10:45:02Z,42.805,6.029,13.2956,4.59964,2469.89,2019-7-09T12:45:20Z
2019-07-09T10:48:05Z,42.805,6.029,13.2991,4.59992,2469.83,2019-7-09T12:48:23Z
2019-07-09T10:51:08Z,42.805,6.029,13.2986,4.59986,2469.853,2019-7-09T12:51:26Z
2019-07-09T10:54:11Z,42.805,6.029,13.2985,4.59982,2469.876,2019-7-09T12:54:29Z
2019-07-09T10:57:14Z,42.805,6.029,13.2994,4.60001,2469.89,2019-7-09T12:57:32Z
2019-07-09T11:00:17Z,42.805,6.029,13.2992,4.59986,2469.876,2019-7-09T13:00:35Z
2019-07-09T11:03:20Z,42.805,6.029,13.2986,4.60017,2469.867,2019-7-09T13:03:38Z
2019-07-09T11:06:23Z,42.805,6.029,13.2999,4.60008,2469.844,2019-7-09T13:06:41Z
2019-07-09T11:09:26Z,42.805,6.029,13.2977,4.60006,2469.89,2019-7-09T13:09:44Z
2019-07-09T11:12:29Z,42.805,6.029,13.2981,4.60016,2469.914,2019-7-09T13:12:47Z
2019-07-09T11:15:32Z,42.805,6.029,13.2982,4.60050,2469.89,2019-7-09T13:15:50Z
2019-07-09T11:18:35Z,42.805,6.029,13.2980,4.60029,2469.876,2019-7-09T13:18:52Z
2019-07-09T11:21:38Z,42.805,6.029,13.3006,4.60026,2469.867,2019-7-09T13:21:55Z
2019-07-09T11:24:40Z,42.805,6.029,13.3005,4.60019,2469.876,2019-7-09T13:24:58Z
2019-07-09T11:27:43Z,42.805,6.029,13.3011,4.59996,2469.867,2019-7-09T13:28:01Z
2019-07-09T11:30:46Z,42.805,6.029,13.3010,4.60004,2469.9,2019-7-09T13:31:04Z
2019-07-09T11:33:49Z,42.805,6.029,13.3024,4.60001,2469.9,2019-7-09T13:34:07Z
2019-07-09T11:36:52Z,42.805,6.029,13.3004,4.59999,2469.876,2019-7-09T13:37:10Z
2019-07-09T11:39:55Z,42.805,6.029,13.2968,4.59987,2469.867,2019-7-09T13:40:13Z
2019-07-09T11:42:58Z,42.805,6.029,13.2994,4.59996,2469.89,2019-7-09T13:43:16Z
2019-07-09T11:46:01Z,42.805,6.029,13.2998,4.59989,2469.914,2019-7-09T13:46:19Z
2019-07-09T11:49:04Z,42.805,6.029,13.2959,4.59979,2469.89,2019-7-09T13:49:22Z
2019-07-09T11:52:07Z,42.805,6.029,13.2964,4.60011,2469.853,2019-7-09T13:52:25Z
2019-07-09T11:55:10Z,42.805,6.029,13.2991,4.59983,2469.853,2019-7-09T13:55:28Z
2019-07-09T11:58:13Z,42.805,6.029,13.3002,4.59988,2469.876,2019-7-09T13:58:31Z
2019-07-09T12:01:16Z,42.805,6.029,13.2956,4.59986,2469.9,2019-7-09T14:01:34Z
2019-07-09T12:04:19Z,42.805,6.029,13.2955,4.59961,2469.853,2019-7-09T14:04:37Z
2019-07-09T12:07:22Z,42.805,6.029,13.2964,4.59969,2469.89,2019-7-09T14:07:40Z
2019-07-09T12:10:25Z,42.805,6.029,13.2957,4.59966,2469.9,2019-7-09T14:10:43Z
2019-07-09T12:13:28Z,42.805,6.029,13.2951,4.59961,2469.9,2019-7-09T14:13:46Z
2019-07-09T12:16:31Z,42.805,6.029,13.2956,4.59963,2469.89,2019-7-09T14:16:48Z
2019-07-09T12:19:34Z,42.805,6.029,13.2952,4.59968,2469.9,2019-7-09T14:19:51Z
2019-07-09T12:22:36Z,42.805,6.029,13.2953,4.59964,2469.89,2019-7-09T14:22:54Z
2019-07-09T12:25:39Z,42.805,6.029,13.2967,4.59968,2469.914,2019-7-09T14:25:57Z
2019-07-09T12:28:42Z,42.805,6.029,13.2957,4.59970,2469.89,2019-7-09T14:29:00Z
2019-07-09T12:31:45Z,42.805,6.029,13.2953,4.59974,2469.89,2019-7-09T14:32:03Z
2019-07-09T12:34:48Z,42.805,6.029,13.2950,4.59967,2469.89,2019-7-09T14:35:06Z
2019-07-09T12:37:51Z,42.805,6.029,13.2955,4.59971,2469.9,2019-7-09T14:38:09Z
2019-07-09T12:40:54Z,42.805,6.029,13.2967,4.59977,2469.876,2019-7-09T14:41:12Z
2019-07-09T12:43:57Z,42.805,6.029,13.2957,4.59964,2469.914,2019-7-09T14:44:15Z
2019-07-09T12:47:00Z,42.805,6.029,13.2958,4.59975,2469.867,2019-7-09T14:47:18Z
2019-07-09T12:50:03Z,42.805,6.029,13.2955,4.59984,2469.9,2019-7-09T14:50:21Z
2019-07-09T12:53:06Z,42.805,6.029,13.2956,4.59985,2469.876,2019-7-09T14:53:24Z
2019-07-09T12:56:09Z,42.805,6.029,13.2965,4.59976,2469.9,2019-7-09T14:56:27Z
2019-07-09T12:59:12Z,42.805,6.029,13.2960,4.59980,2469.914,2019-7-09T14:59:30Z
2019-07-09T13:02:15Z,42.805,6.029,13.2957,4.59972,2469.89,2019-7-09T15:02:33Z
2019-07-09T13:05:18Z,42.805,6.029,13.2953,4.59968,2469.914,2019-7-09T15:05:36Z
2019-07-09T13:08:21Z,42.805,6.029,13.2958,4.59968,2469.9,2019-7-09T15:08:39Z
2019-07-09T13:11:24Z,42.805,6.029,13.2957,4.59976,2469.923,2019-7-09T15:11:42Z
2019-07-09T13:14:27Z,42.805,6.029,13.2949,4.59968,2469.876,2019-7-09T15:14:44Z
2019-07-09T13:17:30Z,42.805,6.029,13.2954,4.59969,2469.923,2019-7-09T15:17:47Z
2019-07-09T13:20:32Z,42.805,6.029,13.2957,4.59966,2469.914,2019-7-09T15:20:50Z
2019-07-09T13:23:35Z,42.805,6.029,13.2959,4.59962,2469.914,2019-7-09T15:23:53Z
2019-07-09T13:26:38Z,42.805,6.029,13.2958,4.59966,2469.914,2019-7-09T15:26:56Z
2019-07-09T13:29:41Z,42.805,6.029,13.2958,4.59961,2469.9,2019-7-09T15:29:59Z
2019-07-09T13:32:44Z,42.805,6.029,13.2952,4.59958,2469.914,2019-7-09T15:33:02Z
2019-07-09T13:35:47Z,42.805,6.029,13.2955,4.59964,2469.914,2019-7-09T15:36:05Z
2019-07-09T13:38:50Z,42.805,6.029,13.2956,4.59959,2469.914,2019-7-09T15:39:08Z
2019-07-09T13:41:53Z,42.805,6.029,13.2955,4.59962,2469.914,2019-7-09T15:42:11Z
2019-07-09T13:44:56Z,42.805,6.029,13.2950,4.59971,2469.914,2019-7-09T15:45:14Z
2019-07-09T13:47:59Z,42.805,6.029,13.2957,4.59969,2469.89,2019-7-09T15:48:17Z
2019-07-09T13:51:02Z,42.805,6.029,13.2956,4.59961,2469.876,2019-7-09T15:51:20Z
2019-07-09T13:54:05Z,42.805,6.029,13.2955,4.59960,2469.9,2019-7-09T15:54:23Z
2019-07-09T13:57:08Z,42.805,6.029,13.2953,4.59966,2469.876,2019-7-09T15:57:26Z
2019-07-09T14:00:11Z,42.805,6.029,13.2956,4.59961,2469.89,2019-7-09T16:00:29Z
2019-07-09T14:03:14Z,42.805,6.029,13.2958,4.59958,2469.914,2019-7-09T16:03:32Z
2019-07-09T14:06:17Z,42.805,6.029,13.2953,4.59961,2469.876,2019-7-09T16:06:35Z
2019-07-09T14:09:20Z,42.805,6.029,13.2952,4.59958,2469.9,2019-7-09T16:09:38Z
2019-07-09T14:12:23Z,42.805,6.029,13.2958,4.59966,2469.867,2019-7-09T16:12:41Z
2019-07-09T14:15:26Z,42.805,6.029,13.2957,4.59961,2469.876,2019-7-09T16:15:43Z
2019-07-09T14:18:28Z,42.805,6.029,13.2955,4.59960,2469.867,2019-7-09T16:18:46Z
2019-07-09T14:21:31Z,42.805,6.029,13.2955,4.59956,2469.89,2019-7-09T16:21:49Z
2019-07-09T14:24:34Z,42.805,6.029,13.2957,4.59957,2469.839,2019-7-09T16:24:52Z
2019-07-09T14:27:37Z,42.805,6.029,13.2954,4.59956,2469.89,2019-7-09T16:27:55Z
2019-07-09T14:30:40Z,42.805,6.029,13.2953,4.59956,2469.914,2019-7-09T16:30:58Z
2019-07-09T14:33:43Z,42.805,6.029,13.2953,4.59956,2469.876,2019-7-09T16:34:01Z
2019-07-09T14:36:46Z,42.805,6.029,13.2958,4.59956,2469.853,2019-7-09T16:37:04Z
2019-07-09T14:39:49Z,42.805,6.029,13.2953,4.59956,2469.9,2019-7-09T16:40:07Z
2019-07-09T14:42:52Z,42.805,6.029,13.2953,4.59956,2469.876,2019-7-09T16:43:10Z
2019-07-09T14:45:55Z,42.805,6.029,13.2955,4.59956,2469.914,2019-7-09T16:46:13Z
2019-07-09T14:48:58Z,42.805,6.029,13.2953,4.59961,2469.9,2019-7-09T16:49:16Z
2019-07-09T14:52:01Z,42.805,6.029,13.2955,4.59956,2469.89,2019-7-09T16:52:19Z
2019-07-09T14:55:04Z,42.805,6.029,13.2953,4.59956,2469.853,2019-7-09T16:55:22Z
2019-07-09T14:58:07Z,42.805,6.029,13.2955,4.59956,2469.876,2019-7-09T16:58:25Z
2019-07-09T15:01:10Z,42.805,6.029,13.2957,4.59956,2469.853,2019-7-09T17:01:28Z
2019-07-09T15:04:13Z,42.805,6.029,13.2958,4.59957,2469.89,2019-7-09T17:04:31Z
2019-07-09T15:07:16Z,42.805,6.029,13.2958,4.59954,2469.853,2019-7-09T17:07:34Z
2019-07-09T15:10:19Z,42.805,6.029,13.2956,4.59953,2469.867,2019-7-09T17:10:37Z
2019-07-09T15:13:22Z,42.805,6.029,13.2955,4.59954,2469.853,2019-7-09T17:13:39Z